Kosmos-794

operational
NORAD ID: 8610 Int'l Des: 1976-008 Owner: GUKOSR Country: SU
LEOCIRCULAR

About Kosmos-794

Description loading...

Live Position

Loading 3D Globe...

Upcoming Passes

Altitude History

Altitude vs Time

uPlot chart will show altitude changes over time

Two-Line Element Set

1 08610U 76008D 26062.64696082 -.00000026 00000-0 -73196-4 0 9993
2 08610 74.0524 226.9687 0026272 55.5495 23.7683 12.48156174282528
Epoch: Mar 3, 2026 • Age: 37 hours

Current Status

Altitude 1489.5 km
Velocity 7.11 km/s
Sub-Earth Point -6.47°S, 46.45°E
Type other

Large Constellations

Loading constellations...